Regional Weather Roundup
Issued by NWS San Angelo, TX

Home | Current Version | Previous Version | Text Only | Print | Product List | Glossary On
Versions: 1 2 3 4 5 6 7 8 9 10 11 12 13 14 15 16 17 18 19 20 21 22 23 24 25 26 27 28 29 30 31 32 33 34 35 36 37 38 39 40 41 42 43 44 45 46 47 48 49 50
000
ASUS44 KSJT 270010
RWRSJT
WEST CENTRAL TEXAS REGIONAL WEATHER ROUNDUP
NATIONAL WEATHER SERVICE SAN ANGELO TX
700 PM CDT SUN APR 26 2015

NOTE: "FAIR" INDICATES FEW OR NO CLOUDS BELOW 12,000 FEET WITH NO
SIGNIFICANT WEATHER AND/OR OBSTRUCTIONS TO VISIBILITY.

TXZ049-054-064>066-071>073-076>078-098-099-113-114-127-128-139-140-
154-155-168>170-270100
...LOCATIONS ACROSS WEST CENTRAL TEXAS...

CITY           SKY/WX    TMP DP  RH WIND       PRES   REMARKS
SAN ANGELO     PTSUNNY   88  34  14 SW13G23   29.47F
ABILENE        LGT RAIN  68  59  73 N24G38    29.56R
DYESS AFB      PTSUNNY   67  60  79 NE16      29.53R
JUNCTION       SUNNY     86  60  41 S16G24    29.52F
SWEETWATER     PTSUNNY   70  61  72 N13       29.58F
BROWNWOOD      LGT RAIN  79  66  65 SE17G25   29.49R
COLEMAN        PTCLDY    83  64  51 NW3       29.48S
SONORA         SUNNY     86  55  35 S9G22     29.56F
OZONA          FAIR      88  32  13 S10       29.53F
BRADY          SUNNY     84  61  45 SE16      29.51S
$$

TEXAS PANHANDLE/OKLAHOMA PANHANDLE

CITY           SKY/WX    TMP DP  RH WIND       PRES   REMARKS
AMARILLO       CLOUDY    54  51  90 E28G35    29.76R
BORGER         RAIN      52  49  89 NE16G25   29.82R FOG
CANADIAN       CLOUDY    56  51  84 E12G20    29.79R
DALHART        CLOUDY    50  46  86 NE36G44   29.78R
DUMAS          DRIZZLE   47  46  96 NE21G29   29.79S WCI  39
GUYMON         NOT AVBL
HEREFORD       CLOUDY    66  32  28 MISG      29.74R
PAMPA          RAIN      52  49  89 N10       29.83R
PERRYTON       CLOUDY    50  48  94 NE7       29.83F
$$

SOUTHERN PANHANDLE/SOUTH PLAINS/ROLLING PLAINS

CITY           SKY/WX    TMP DP  RH WIND       PRES   REMARKS
LUBBOCK        CLOUDY    68  33  27 NW22G31   29.66F
SNYDER         PTSUNNY   77  34  20 W9G20     29.61R
CHILDRESS      LGT RAIN  60  54  80 NE26G37   29.65R
SEMINOLE       CLOUDY    67  31  26 W7        29.69R
$$

PERMIAN BASIN

CITY           SKY/WX    TMP DP  RH WIND       PRES   REMARKS
MIDLAND        CLOUDY    73  29  19 NW24G37   29.62R
ODESSA         CLOUDY    71  28  20 NW22G36   29.64R
WINK           CLOUDY    70  22  16 W22G30    29.63S
$$

FAR WEST/SOUTHWEST MOUNTAINS/TRANS PECOS

CITY           SKY/WX    TMP DP  RH WIND       PRES   REMARKS
ALPINE         CLEAR     68  29  23 W26G33    29.76S
DRYDEN           N/A     93  13   5 W12       29.48F
EL PASO        PTSUNNY   64  34  32 SW10G21   29.77R
FORT STOCKTON  MOSUNNY   72  30  21 NW29G38   29.65R
GUADALUPE PASS MOSUNNY   54  33  45 W26G47    29.78R
MARFA          SUNNY     64  28  25 W29G37    29.74F
PECOS          MOCLDY    71  28  20 W35G45    29.63S
$$

DALLAS/FORT WORTH METROPLEX

CITY           SKY/WX    TMP DP  RH WIND       PRES   REMARKS
DFW AIRPORT    CLOUDY    77  62  59 NE9       29.56S
FTW MEACHAM    CLOUDY    80  56  43 E28G36    29.47F
DAL-EXECUTIVE  CLOUDY    76  64  66 SE7       29.56F
GRAND PRAIRIE  SUNNY     79  64  61 E6        29.58S
ADDISON        NOT AVBL
MESQUITE       CLEAR     75  66  73 N3        29.58F
LANCASTER      CLOUDY    74  65  72 E5        29.57F
$$

NORTH CENTRAL TEXAS

CITY           SKY/WX    TMP DP  RH WIND       PRES   REMARKS
SHRMAN/DENISON CLOUDY    77  73  86 NE3       29.63S
GAINESVILLE    LGT RAIN  73  68  83 N7        29.61F
BRIDGEPORT     CLOUDY    73  53  49 NE10      29.53F
DENTON         CLOUDY    78  52  40 E9        29.56F
WAXAHACHIE     CLOUDY    74  66  75 CALM      29.57F
GRANBURY         N/A     77  62  60 E14G23    29.50F
$$

WESTERN NORTH TEXAS

CITY           SKY/WX    TMP DP  RH WIND       PRES   REMARKS
WICHITA FALLS  LGT RAIN  66  58  75 E8        29.61R
VERNON         CLOUDY    67  55  64 N15       29.66R
BRECKENRIDGE   MOCLDY    74  57  54 SE24G33   29.46F
COMANCHE       PTSUNNY   80  64  58 SE22G35   29.47F
$$

CENTRAL AND SOUTH CENTRAL TEXAS

CITY           SKY/WX    TMP DP  RH WIND       PRES   REMARKS
AUSTIN/BERGSTM PTSUNNY   82  72  71 SE22      29.55R
WACO           PTSUNNY   80  65  59 SE12      29.56S
HILLSBORO      MOCLDY    78  63  58 E12G17    29.55F
TEMPLE         SUNNY     81  64  57 SE18G24   29.55F
KILLEEN-GRAY   SUNNY     80  68  65 SE18G26   29.54F
FORT HOOD      MOSUNNY   82  67  61 SE22G28   29.54F
GEORGETOWN     PTSUNNY   82  68  61 SE13      29.56F
LAGO VISTA     MOCLDY    81  69  66 SE8G16    29.58R
SAN MARCOS     MOSUNNY   81  73  78 SE18      29.56S HAZE
NEW BRAUNFELS  PTSUNNY   83  75  77 S18G24    29.53F HAZE
RANDOLPH AFB   MOSUNNY   83  74  75 SE13      29.55F
SAN ANTONIO    PTSUNNY   84  73  69 SE20      29.55S
STINSON        MOSUNNY   84  73  69 SE13      29.52F
PLEASANTON     NOT AVBL
LA GRANGE      PTSUNNY   80  69  67 SE10G18   29.57R
GIDDINGS       PTCLDY    80  71  73 SE9       29.62R HAZE
$$

EAST TEXAS

CITY           SKY/WX    TMP DP  RH WIND       PRES   REMARKS
PARIS          CLOUDY    79  66  65 MISG      29.64F
CLARKSVILLE    NOT AVBL
TYLER          MOSUNNY   83  61  47 E8        29.63S
LONGVIEW       PTSUNNY   83  63  50 E6        29.62F
PALESTINE      PTCLDY    82  69  65 E8        29.62S
NACOGDOCHES    PTSUNNY   77  66  69 SE6       29.65F
$$

TEXAS HILL COUNTRY AND EDWARDS PLATEAU

CITY           SKY/WX    TMP DP  RH WIND       PRES   REMARKS
LLANO          PTCLDY    84  66  54 S10G21    29.56S
HORSESHOE BAY  FAIR      82  70  65 SE8G20    29.55S
KERRVILLE      MOSUNNY   82  68  63 S15       29.58S
FREDERICKSBRG  SUNNY     80  66  63 S7G17     29.57F
ROCKSPRINGS    CLEAR     81  66  61 SE13      29.58F
HONDO          MOSUNNY   83  71  67 SE14        N/A
UVALDE         CLEAR     83  72  69 SE14      29.52F
DEL RIO        SUNNY     93  45  19 SE13G23   29.42F
$$

SOUTHEAST TEXAS

CITY           SKY/WX    TMP DP  RH WIND       PRES   REMARKS
COLLEGE STN    MOSUNNY   81  69  67 SE10      29.59S
CALDWELL       PTCLDY    81  72  74 SE9       29.62R
CROCKETT       NOT AVBL
BRENHAM        MOSUNNY   83  73  73 SE10G20   29.59S
HUNTSVILLE     MOSUNNY   82  70  66 VRB5      29.61F
CONROE         CLOUDY    79  67  66 SE12      29.63S
HOUSTON BUSH   CLOUDY    78  72  81 SE12      29.62S
HOUSTON HOBBY  CLOUDY    77  74  90 SE16G25   29.60F THUNDER
PERLAND        CLOUDY    79  74  84 E5        29.68R THUNDER
WHARTON        DRIZZLE   66  65  99 E15G30    29.62F
$$

THE UPPER TEXAS COAST

CITY           SKY/WX    TMP DP  RH WIND       PRES   REMARKS
ORANGE         CLOUDY    77  71  82 S3        29.67R
PORT ARTHUR    CLOUDY    77  73  87 SE5       29.66R
GALVESTON      CLOUDY    77  75  93 E12       29.64R
ANGLETON       CLOUDY    76  74  93 SE5       29.66R
BAY CITY       CLOUDY    77  76  96 E8        29.64R FOG
$$

TEXAS COASTAL BEND, RIO GRANDE PLAINS DEEP SOUTH TEXAS

CITY           SKY/WX    TMP DP  RH WIND       PRES   REMARKS
VICTORIA       CLOUDY    77  77 100 SE9       29.57F FOG
BEEVILLE       FAIR      80  78  92 SE10      29.54F FOG
ROCKPORT       CLOUDY    80  76  87 SE12      29.56R FOG
PORT ARANSAS   CLOUDY    77  76  95 SE14      29.54F FOG
PORT LAVACA    CLOUDY    77  75  94 SE13      29.57F FOG
CORPUS CHRISTI CLOUDY    79  77  94 SE14      29.54F FOG
KINGSVILLE NAS PTSUNNY   81  78  91 SE13      29.53S FOG
COTULLA        PTSUNNY   87  72  60 SE17      29.49F
LAREDO         CLOUDY    90  73  57 SE12      29.51S
BROWNSVILLE    CLOUDY    83  78  85 SE13      29.53F HAZE
PORT ISABEL    CLOUDY    83  76  79 SE12      29.52F HAZE
HEBBRONVILLE   PTCLDY    88  71  57 E6        29.53S
MCALLEN        CLOUDY    90  78  68 SE13      29.51F
WESLACO        CLOUDY    87  76  71 SE9       29.51F
FALFURRIAS     MOCLDY    87  78  74 E8        29.50S
EDINBURG       CLOUDY    90  78  66 SE10      29.51F
$$



USA.gov is the U.S. government's official web portal to all federal, state and local government web resources and services.